Content
SEND FEEDBACK

Daily
Averages
Monthly
Summary
United States of America

WARSAW, NORTH CAROLINA


Home > North America > United States > North Carolina
Elevation: 108 feet     Latitude: 35 00N     Longitude: 078 02W

WEATHER
 
SELECT A DAY
Number of Records: 70,422;   Date Range: 3/18/98 - 8/19/14
 
SHARE

PRINT THIS DATA

[ ← Previous Day ]
WEATHER ALMANAC - JANUARY 31, 2013
[ Next Day → ]
[ °C ]   °F
Weather ElementAverageHighLow
Temperature49.9 °F71.8 °F (12:55 am)33.1 °F (11:55 pm)
Dewpoint33.8 °F64.6 °F (1:15 am)19.8 °F (3:35 pm)
Humidity58.3 %94 % (1:35 am)27 % (1:55 pm)
Barometer29.83 in30.08 in (11:55 pm)29.50 in (12:55 am)
Wind Speed12.8 mph34.5 mph (1:15 am)
Wind Gust40.3 mph (1:15 am)
Weather ElementAverage
Visibility9.4 mi
Wind DirectionWSW (235.4 °)

Weather ElementTotal
Precipitation1.11 in
Heating Degree Days12.6 (Base 65)
Growing Degree Days2.5 (Base 50)
Averaged from 67 records on January 31, 2013
WEATHER CONDITIONS BREAKOUT
WIND DIRECTION BREAKOUT
WEATHER BY HOUR - JANUARY 31, 2013
[ °C ]   °F
Local TimeTemperatureDewpointHumidityBarometerVisibilityWind DirectionWind SpeedGust SpeedPrecipitationEventsConditions
12:35 AM70.5 °F63.9 °F79 %29.51 in10.0 miSouth (180°)10.4 mph32.2 mphOvercast
12:55 AM71.8 °F63.5 °F75 %29.50 in10.0 miSouth (190°)10.4 mph27.6 mphOvercast
1:15 AM69.3 °F64.6 °F85 %29.56 in2.5 miWSW (250°)34.5 mph40.3 mph0.06 inRainRain
1:35 AM57.2 °F55.4 °F94 %29.57 in4.0 miWSW (250°)20.7 mph32.2 mph0.40 inRainLight Rain
1:55 AM57.6 °F54.9 °F91 %29.58 in5.0 miWSW (250°)16.1 mph25.3 mph0.40 inRainLight Rain
2:15 AM56.8 °F55.0 °F94 %29.59 in3.0 miWSW (240°)12.7 mph17.3 mph0.02 inRainLight Rain
2:35 AM55.8 °F53.8 °F93 %29.58 in3.0 miSW (230°)21.9 mph29.9 mph0.08 inRainRain
2:55 AM53.8 °F51.1 °F91 %29.61 in10.0 miWSW (250°)18.4 mph29.9 mph0.09 inOvercast
3:15 AM52.7 °F49.6 °F89 %29.61 in5.0 miWSW (240°)16.1 mph24.2 mph0.02 inRainLight Rain
3:35 AM52.7 °F49.3 °F88 %29.61 in10.0 miSW (230°)13.8 mph21.9 mph0.02 inOvercast
3:55 AM52.7 °F48.6 °F86 %29.61 in10.0 miWSW (240°)13.8 mph20.7 mph0.02 inOvercast
4:15 AM52.7 °F47.8 °F84 %29.62 in10.0 miWSW (250°)16.1 mph25.3 mphOvercast
4:35 AM52.7 °F47.7 °F83 %29.62 in10.0 miWSW (250°)13.8 mph20.7 mphOvercast
4:55 AM52.3 °F48.4 °F86 %29.64 in10.0 miSW (230°)10.4 mph20.7 mphMostly Cloudy
5:15 AM52.7 °F48.2 °F85 %29.64 in10.0 miSW (230°)15.0 mph21.9 mphMostly Cloudy
5:35 AM52.2 °F46.4 °F81 %29.67 in10.0 miSW (230°)12.7 mph28.8 mphMostly Cloudy
5:55 AM51.8 °F43.2 °F72 %29.68 in10.0 miWSW (240°)15.0 mph26.5 mphScattered Clouds
6:15 AM51.3 °F41.7 °F70 %29.69 in10.0 miWSW (250°)15.0 mph26.5 mphScattered Clouds
6:35 AM50.7 °F37.6 °F61 %29.71 in10.0 miWSW (240°)21.9 mph29.9 mphClear
6:55 AM50.0 °F36.5 °F60 %29.72 in10.0 miSW (230°)20.7 mph36.8 mphScattered Clouds
7:15 AM48.4 °F36.5 °F64 %29.74 in10.0 miWSW (240°)17.3 mph26.5 mphScattered Clouds
7:35 AM47.8 °F36.1 °F64 %29.76 in10.0 miWSW (240°)17.3 mph26.5 mphScattered Clouds
7:55 AM47.5 °F36.1 °F65 %29.77 in10.0 miWSW (240°)17.3 mph20.7 mphClear
8:15 AM47.7 °F35.6 °F63 %29.79 in10.0 miWSW (250°)15.0 mph29.9 mphClear
8:35 AM48.2 °F35.4 °F61 %29.81 in10.0 miWSW (250°)17.3 mph28.8 mphScattered Clouds
8:55 AM48.4 °F35.2 °F60 %29.82 in10.0 miWSW (250°)15.0 mph32.2 mphMostly Cloudy
9:15 AM48.9 °F35.4 °F60 %29.82 in10.0 miWSW (250°)16.1 mph21.9 mphScattered Clouds
9:35 AM49.1 °F35.4 °F59 %29.84 in10.0 miWSW (250°)15.0 mph24.2 mphScattered Clouds
9:55 AM49.3 °F35.2 °F58 %29.86 in10.0 miWest (260°)17.3 mph23.0 mphScattered Clouds
10:15 AM49.6 °F34.7 °F56 %29.87 in10.0 miWest (260°)17.3 mph26.5 mphMostly Cloudy
10:35 AM50.2 °F34.7 °F55 %29.87 in10.0 miWest (260°)15.0 mph26.5 mphMostly Cloudy
10:55 AM50.4 °F32.7 °F51 %29.87 in10.0 miWest (280°)15.0 mph24.2 mphMostly Cloudy
11:15 AM51.8 °F28.8 °F41 %29.88 in10.0 miWest (270°)15.0 mph23.0 mphScattered Clouds
11:35 AM52.0 °F25.7 °F36 %29.88 in10.0 miWest (280°)17.3 mph23.0 mphClear
11:55 AM52.0 °F23.7 °F33 %29.88 in10.0 miWest (280°)12.7 mph23.0 mphClear
12:15 PM52.3 °F23.0 °F32 %29.87 in10.0 miWest (280°)15.0 mph23.0 mphClear
12:35 PM52.2 °F20.5 °F29 %29.87 in10.0 miWest (280°)16.1 mph27.6 mphClear
12:55 PM52.2 °F21.0 °F30 %29.86 in10.0 miWest (280°)15.0 mph25.3 mphClear
1:15 PM53.2 °F21.9 °F29 %29.86 in10.0 miWest (280°)13.8 mph23.0 mphClear
1:35 PM53.6 °F20.7 °F28 %29.86 in10.0 miWest (270°)13.8 mph27.6 mphClear
1:55 PM53.6 °F20.5 °F27 %29.86 in10.0 miWSW (250°)13.8 mph27.6 mphClear
2:15 PM54.1 °F22.8 °F30 %29.86 in10.0 miWest (270°)19.6 mph25.3 mphClear
2:35 PM54.1 °F21.0 °F27 %29.87 in10.0 miWest (270°)16.1 mph24.2 mphClear
2:55 PM54.3 °F20.8 °F27 %29.87 in10.0 miWNW (290°)19.6 mph25.3 mphClear
3:15 PM53.8 °F19.9 °F27 %29.88 in10.0 miWest (280°)20.7 mph29.9 mphClear
3:35 PM53.6 °F19.8 °F27 %29.89 in10.0 miWSW (250°)13.8 mph25.3 mphClear
4:15 PM52.7 °F19.9 °F28 %29.91 in10.0 miWest (270°)11.5 mph23.0 mphClear
4:35 PM52.0 °F19.9 °F28 %29.92 in10.0 miWest (270°)11.5 mph24.2 mphClear
4:55 PM51.4 °F21.2 °F31 %29.93 in10.0 miWest (270°)8.1 mphClear
5:15 PM50.4 °F21.0 °F32 %29.94 in10.0 miWest (260°)8.1 mphClear
5:35 PM48.7 °F22.5 °F36 %29.95 in10.0 miWest (270°)6.9 mphClear
5:55 PM48.9 °F20.8 °F33 %29.96 in10.0 miWest (260°)9.2 mph17.3 mphClear
6:15 PM48.0 °F21.2 °F35 %29.98 in10.0 miWest (260°)8.1 mphClear
6:35 PM45.7 °F22.8 °F41 %29.99 in10.0 miWSW (250°)4.6 mphClear
6:55 PM44.6 °F23.2 °F43 %30.00 in10.0 miWSW (240°)5.8 mphClear
7:15 PM42.3 °F25.9 °F52 %30.01 in10.0 miSW (230°)4.6 mphClear
7:35 PM41.2 °F27.5 °F58 %30.02 in10.0 miSW (230°)4.6 mphClear
8:15 PM39.9 °F27.3 °F61 %30.04 in10.0 miSW (230°)5.8 mphClear
8:35 PM39.9 °F27.5 °F61 %30.04 in10.0 miSW (230°)5.8 mphClear
8:55 PM40.5 °F26.8 °F58 %30.04 in10.0 miSW (230°)4.6 mphClear
9:15 PM39.7 °F27.0 °F60 %30.05 in10.0 miSW (230°)4.6 mphClear
9:35 PM39.7 °F27.0 °F60 %30.05 in10.0 miWSW (250°)3.5 mphClear
10:15 PM35.6 °F28.9 °F77 %30.06 in10.0 miSW (230°)4.6 mphClear
10:35 PM34.9 °F29.5 °F81 %30.07 in10.0 miCalmClear
11:15 PM35.1 °F28.6 °F77 %30.06 in10.0 miCalmClear
11:35 PM33.4 °F29.3 °F85 %30.07 in10.0 miCalmClear
11:55 PM33.1 °F29.1 °F85 %30.08 in10.0 miCalmClear
Hourly data recorded from KDPL, located miles away from Warsaw, North Carolina







STORIES FROM OUR PARTNERS